Wetterdaten: aktuell Samstag, 18.09.2021 23:00
Datum Zeit Temp. Feuchte Luftdruck Nieders. Wind Richtung Richtung Sonnenschein Solar Taupunkt Windchill Windben
18.09.2021 23:00 11,7 C 89 % 1016,1 hPa 0,0 l/m 0,0 km/h (0 Bft) NO 47 0 min 0 W/m 9,9 C 11,7 C 0,0 km/h (0 Bft)
18.09.2021 22:55 11,8 C 88 % 1016,1 hPa 0,0 l/m 0,0 km/h (0 Bft) NO 46 0 min 0 W/m 9,9 C 11,8 C 0,0 km/h (0 Bft)
18.09.2021 22:50 11,9 C 88 % 1016,1 hPa 0,0 l/m 0,0 km/h (0 Bft) NO 47 0 min 0 W/m 10,0 C 11,9 C 0,0 km/h (0 Bft)
18.09.2021 22:45 12,1 C 88 % 1016,1 hPa 0,0 l/m 0,0 km/h (0 Bft) NO 47 0 min 0 W/m 10,2 C 12,1 C 0,0 km/h (0 Bft)
18.09.2021 22:40 12,2 C 88 % 1016,1 hPa 0,0 l/m 0,0 km/h (0 Bft) NO 46 0 min 0 W/m 10,3 C 12,2 C 0,0 km/h (0 Bft)
18.09.2021 22:35 12,3 C 88 % 1016,2 hPa 0,0 l/m 0,0 km/h (0 Bft) NO 47 0 min 0 W/m 10,4 C 12,3 C 0,0 km/h (0 Bft)
18.09.2021 22:30 12,4 C 87 % 1016,2 hPa 0,0 l/m 0,0 km/h (0 Bft) NO 47 0 min 0 W/m 10,3 C 12,4 C 0,0 km/h (0 Bft)
18.09.2021 22:25 12,6 C 86 % 1016,1 hPa 0,0 l/m 0,0 km/h (0 Bft) NO 47 0 min 0 W/m 10,3 C 12,6 C 0,0 km/h (0 Bft)
18.09.2021 22:20 12,8 C 86 % 1016,2 hPa 0,0 l/m 0,0 km/h (0 Bft) NO 47 0 min 0 W/m 10,5 C 12,8 C 0,0 km/h (0 Bft)
18.09.2021 22:15 13,1 C 85 % 1016,2 hPa 0,0 l/m 0,0 km/h (0 Bft) NO 46 0 min 0 W/m 10,6 C 13,1 C 0,0 km/h (0 Bft)
18.09.2021 22:10 13,2 C 85 % 1016,2 hPa 0,0 l/m 0,0 km/h (0 Bft) NO 47 0 min 0 W/m 10,7 C 13,2 C 0,0 km/h (0 Bft)
18.09.2021 22:05 13,3 C 84 % 1016,2 hPa 0,0 l/m 0,0 km/h (0 Bft) NO 47 0 min 0 W/m 10,7 C 13,3 C 0,0 km/h (0 Bft)
18.09.2021 22:00 13,5 C 83 % 1016,2 hPa 0,0 l/m 0,0 km/h (0 Bft) NO 47 0 min 0 W/m 10,7 C 13,5 C 0,0 km/h (0 Bft)
18.09.2021 21:55 13,7 C 82 % 1016,1 hPa 0,0 l/m 0,0 km/h (0 Bft) NO 47 0 min 0 W/m 10,7 C 13,7 C 0,0 km/h (0 Bft)
18.09.2021 21:50 14,0 C 82 % 1016,1 hPa 0,0 l/m 0,0 km/h (0 Bft) NO 47 0 min 0 W/m 11,0 C 14,0 C 0,0 km/h (0 Bft)
18.09.2021 21:45 14,2 C 82 % 1016,1 hPa 0,0 l/m 0,0 km/h (0 Bft) NO 46 0 min 0 W/m 11,2 C 14,2 C 0,0 km/h (0 Bft)
18.09.2021 21:40 14,4 C 82 % 1016,1 hPa 0,0 l/m 0,0 km/h (0 Bft) NO 46 0 min 0 W/m 11,4 C 14,4 C 0,0 km/h (0 Bft)
18.09.2021 21:35 14,5 C 81 % 1016,1 hPa 0,0 l/m 0,0 km/h (0 Bft) NO 46 0 min 0 W/m 11,3 C 14,5 C 0,0 km/h (0 Bft)
18.09.2021 21:30 14,7 C 81 % 1016,0 hPa 0,0 l/m 0,0 km/h (0 Bft) NO 47 0 min 0 W/m 11,5 C 14,7 C 0,0 km/h (0 Bft)
18.09.2021 21:25 14,8 C 80 % 1016,0 hPa 0,0 l/m 0,0 km/h (0 Bft) NO 46 0 min 0 W/m 11,4 C 14,8 C 0,0 km/h (0 Bft)
18.09.2021 21:20 14,9 C 80 % 1016,0 hPa 0,0 l/m 0,0 km/h (0 Bft) NO 47 0 min 0 W/m 11,5 C 14,9 C 0,0 km/h (0 Bft)
18.09.2021 21:15 15,1 C 79 % 1015,9 hPa 0,0 l/m 0,0 km/h (0 Bft) NO 47 0 min 0 W/m 11,5 C 15,1 C 0,0 km/h (0 Bft)
18.09.2021 21:10 15,2 C 79 % 1015,9 hPa 0,0 l/m 0,0 km/h (0 Bft) NO 47 0 min 0 W/m 11,6 C 15,2 C 0,0 km/h (0 Bft)
18.09.2021 21:05 15,3 C 79 % 1015,8 hPa 0,0 l/m 0,0 km/h (0 Bft) NO 46 0 min 0 W/m 11,7 C 15,3 C 0,0 km/h (0 Bft)
18.09.2021 21:00 15,4 C 78 % 1015,9 hPa 0,0 l/m 0,0 km/h (0 Bft) NO 46 0 min 0 W/m 11,6 C 15,4 C 0,0 km/h (0 Bft)
18.09.2021 20:55 15,6 C 78 % 1015,8 hPa 0,0 l/m 0,0 km/h (0 Bft) NO 47 0 min 0 W/m 11,8 C 15,6 C 0,0 km/h (0 Bft)
18.09.2021 20:50 15,8 C 77 % 1015,8 hPa 0,0 l/m 0,0 km/h (0 Bft) NO 46 0 min 0 W/m 11,8 C 15,8 C 0,0 km/h (0 Bft)
18.09.2021 20:45 16,0 C 76 % 1015,8 hPa 0,0 l/m 0,0 km/h (0 Bft) NO 46 0 min 0 W/m 11,8 C 16,0 C 0,0 km/h (0 Bft)
18.09.2021 20:40 16,2 C 76 % 1015,7 hPa 0,0 l/m 0,0 km/h (0 Bft) NO 46 0 min 0 W/m 12,0 C 16,2 C 0,0 km/h (0 Bft)
18.09.2021 20:35 16,3 C 75 % 1015,7 hPa 0,0 l/m 0,0 km/h (0 Bft) NO 46 0 min 0 W/m 11,9 C 16,3 C 0,0 km/h (0 Bft)
18.09.2021 20:30 16,3 C 75 % 1015,6 hPa 0,0 l/m 0,0 km/h (0 Bft) NO 46 0 min 0 W/m 11,9 C 16,3 C 0,0 km/h (0 Bft)
18.09.2021 20:25 16,4 C 75 % 1015,5 hPa 0,0 l/m 0,0 km/h (0 Bft) NO 46 0 min 0 W/m 12,0 C 16,4 C 0,0 km/h (0 Bft)
18.09.2021 20:20 16,4 C 75 % 1015,5 hPa 0,0 l/m 0,0 km/h (0 Bft) NO 46 0 min 0 W/m 12,0 C 16,4 C 0,0 km/h (0 Bft)
18.09.2021 20:15 16,5 C 75 % 1015,5 hPa 0,0 l/m 0,0 km/h (0 Bft) NW 313 0 min 0 W/m 12,1 C 16,5 C 0,0 km/h (0 Bft)
18.09.2021 20:10 16,6 C 75 % 1015,5 hPa 0,0 l/m 0,0 km/h (0 Bft) NW 313 0 min 0 W/m 12,1 C 16,6 C 0,0 km/h (0 Bft)
18.09.2021 20:05 16,6 C 75 % 1015,4 hPa 0,0 l/m 0,0 km/h (0 Bft) NW 313 0 min 0 W/m 12,1 C 16,6 C 0,0 km/h (0 Bft)
18.09.2021 20:00 16,7 C 74 % 1015,4 hPa 0,0 l/m 0,0 km/h (0 Bft) NW 313 0 min 0 W/m 12,0 C 16,7 C 0,0 km/h (0 Bft)
18.09.2021 19:55 16,7 C 74 % 1015,3 hPa 0,0 l/m 0,0 km/h (0 Bft) NW 313 0 min 0 W/m 12,0 C 16,7 C 0,0 km/h (0 Bft)
18.09.2021 19:50 16,8 C 73 % 1015,3 hPa 0,0 l/m 0,0 km/h (0 Bft) NW 313 0 min 0 W/m 11,9 C 16,8 C 0,0 km/h (0 Bft)
18.09.2021 19:45 17,1 C 73 % 1015,3 hPa 0,0 l/m 0,0 km/h (0 Bft) NW 313 0 min 0 W/m 12,2 C 17,1 C 0,0 km/h (0 Bft)
18.09.2021 19:40 17,2 C 72 % 1015,3 hPa 0,0 l/m 0,0 km/h (0 Bft) NW 313 0 min 0 W/m 12,1 C 17,2 C 0,0 km/h (0 Bft)
18.09.2021 19:35 17,3 C 72 % 1015,3 hPa 0,0 l/m 0,0 km/h (0 Bft) NW 313 0 min 0 W/m 12,2 C 17,3 C 0,0 km/h (0 Bft)
18.09.2021 19:30 17,5 C 71 % 1015,3 hPa 0,0 l/m 0,0 km/h (0 Bft) NW 313 0 min 0 W/m 12,2 C 17,5 C 0,0 km/h (0 Bft)
18.09.2021 19:25 17,8 C 71 % 1015,2 hPa 0,0 l/m 0,0 km/h (0 Bft) NW 313 0 min 5 W/m 12,5 C 17,8 C 0,0 km/h (0 Bft)
18.09.2021 19:20 18,0 C 70 % 1015,1 hPa 0,0 l/m 0,0 km/h (0 Bft) NW 313 0 min 7 W/m 12,4 C 18,0 C 0,0 km/h (0 Bft)
18.09.2021 19:15 18,2 C 68 % 1015,1 hPa 0,0 l/m 0,0 km/h (0 Bft) NW 313 0 min 11 W/m 12,2 C 18,2 C 0,0 km/h (0 Bft)
18.09.2021 19:10 18,4 C 68 % 1015,1 hPa 0,0 l/m 0,0 km/h (0 Bft) NW 313 0 min 14 W/m 12,4 C 18,4 C 0,0 km/h (0 Bft)
18.09.2021 19:05 18,7 C 68 % 1015,1 hPa 0,0 l/m 0,0 km/h (0 Bft) NW 313 0 min 16 W/m 12,7 C 18,7 C 0,0 km/h (0 Bft)
18.09.2021 19:00 18,9 C 67 % 1015,2 hPa 0,0 l/m 0,0 km/h (0 Bft) NW 313 0 min 19 W/m 12,6 C 18,9 C 0,0 km/h (0 Bft)
18.09.2021 18:55 19,1 C 66 % 1015,2 hPa 0,0 l/m 0,0 km/h (0 Bft) NW 313 0 min 25 W/m 12,6 C 19,1 C 0,0 km/h (0 Bft)
18.09.2021 18:50 19,3 C 65 % 1015,1 hPa 0,0 l/m 0,0 km/h (0 Bft) NW 313 0 min 26 W/m 12,6 C 19,3 C 0,0 km/h (0 Bft)
18.09.2021 18:45 19,6 C 64 % 1015,2 hPa 0,0 l/m 0,0 km/h (0 Bft) NW 313 0 min 30 W/m 12,6 C 19,6 C 0,0 km/h (0 Bft)
18.09.2021 18:40 19,9 C 63 % 1015,2 hPa 0,0 l/m 0,0 km/h (0 Bft) NW 313 0 min 32 W/m 12,6 C 19,9 C 0,0 km/h (0 Bft)
18.09.2021 18:35 20,2 C 63 % 1015,2 hPa 0,0 l/m 0,0 km/h (0 Bft) NW 313 0 min 39 W/m 12,9 C 20,2 C 0,0 km/h (0 Bft)
18.09.2021 18:30 20,5 C 63 % 1015,2 hPa 0,0 l/m 0,0 km/h (0 Bft) NW 313 0 min 40 W/m 13,2 C 20,5 C 0,0 km/h (0 Bft)
18.09.2021 18:25 20,7 C 62 % 1015,2 hPa 0,0 l/m 0,0 km/h (0 Bft) NW 313 0 min 44 W/m 13,2 C 20,7 C 0,0 km/h (0 Bft)
18.09.2021 18:20 20,9 C 61 % 1015,2 hPa 0,0 l/m 0,0 km/h (0 Bft) NW 313 0 min 79 W/m 13,1 C 20,9 C 0,0 km/h (0 Bft)
18.09.2021 18:15 21,2 C 59 % 1015,2 hPa 0,0 l/m 0,0 km/h (0 Bft) NW 313 0 min 86 W/m 12,9 C 21,2 C 0,0 km/h (0 Bft)
18.09.2021 18:10 21,3 C 60 % 1015,3 hPa 0,0 l/m 0,0 km/h (0 Bft) NW 313 0 min 74 W/m 13,2 C 21,3 C 0,0 km/h (0 Bft)
18.09.2021 18:05 21,3 C 60 % 1015,2 hPa 0,0 l/m 0,0 km/h (0 Bft) NW 313 0 min 132 W/m 13,2 C 21,3 C 0,0 km/h (0 Bft)
18.09.2021 18:00 21,3 C 62 % 1015,2 hPa 0,0 l/m 0,0 km/h (0 Bft) NW 313 0 min 142 W/m 13,7 C 21,3 C 0,0 km/h (0 Bft)
18.09.2021 17:55 21,4 C 62 % 1015,2 hPa 0,0 l/m 0,0 km/h (0 Bft) NW 313 0 min 142 W/m 13,8 C 21,4 C 0,0 km/h (0 Bft)
18.09.2021 17:50 21,6 C 61 % 1015,2 hPa 0,0 l/m 0,0 km/h (0 Bft) NW 313 5 min 155 W/m 13,7 C 21,6 C 0,0 km/h (0 Bft)
18.09.2021 17:45 21,7 C 59 % 1015,1 hPa 0,0 l/m 0,0 km/h (0 Bft) NW 313 5 min 155 W/m 13,3 C 21,7 C 0,0 km/h (0 Bft)
18.09.2021 17:40 21,8 C 59 % 1015,2 hPa 0,0 l/m 0,0 km/h (0 Bft) NW 313 5 min 192 W/m 13,4 C 21,8 C 0,0 km/h (0 Bft)
18.09.2021 17:35 21,8 C 59 % 1015,3 hPa 0,0 l/m 0,0 km/h (0 Bft) NW 313 5 min 181 W/m 13,4 C 21,8 C 0,0 km/h (0 Bft)
18.09.2021 17:30 21,8 C 60 % 1015,3 hPa 0,0 l/m 0,0 km/h (0 Bft) NW 313 5 min 197 W/m 13,7 C 21,8 C 0,0 km/h (0 Bft)
18.09.2021 17:25 21,8 C 60 % 1015,3 hPa 0,0 l/m 0,0 km/h (0 Bft) NW 313 5 min 200 W/m 13,7 C 21,8 C 0,0 km/h (0 Bft)
18.09.2021 17:20 21,9 C 60 % 1015,3 hPa 0,0 l/m 0,0 km/h (0 Bft) NW 313 5 min 207 W/m 13,8 C 21,9 C 0,0 km/h (0 Bft)
18.09.2021 17:15 22,0 C 58 % 1015,2 hPa 0,0 l/m 0,0 km/h (0 Bft) NW 313 5 min 209 W/m 13,3 C 22,0 C 0,0 km/h (0 Bft)
18.09.2021 17:10 22,1 C 59 % 1015,3 hPa 0,0 l/m 0,0 km/h (0 Bft) NW 313 5 min 206 W/m 13,7 C 22,1 C 0,0 km/h (0 Bft)
18.09.2021 17:05 22,2 C 58 % 1015,4 hPa 0,0 l/m 0,0 km/h (0 Bft) NW 313 5 min 253 W/m 13,5 C 22,2 C 0,0 km/h (0 Bft)
18.09.2021 17:00 22,3 C 56 % 1015,4 hPa 0,0 l/m 0,0 km/h (0 Bft) NW 313 5 min 204 W/m 13,1 C 22,3 C 0,0 km/h (0 Bft)
18.09.2021 16:55 22,3 C 58 % 1015,4 hPa 0,0 l/m 0,0 km/h (0 Bft) NW 313 5 min 278 W/m 13,6 C 22,3 C 0,0 km/h (0 Bft)
18.09.2021 16:50 22,4 C 58 % 1015,4 hPa 0,0 l/m 0,0 km/h (0 Bft) NW 313 5 min 325 W/m 13,7 C 22,4 C 0,0 km/h (0 Bft)
18.09.2021 16:45 22,5 C 59 % 1015,4 hPa 0,0 l/m 0,0 km/h (0 Bft) NW 313 5 min 323 W/m 14,1 C 22,5 C 0,0 km/h (0 Bft)
18.09.2021 16:40 22,4 C 60 % 1015,4 hPa 0,0 l/m 0,0 km/h (0 Bft) NW 313 5 min 357 W/m 14,2 C 22,4 C 0,0 km/h (0 Bft)
18.09.2021 16:35 22,4 C 60 % 1015,5 hPa 0,0 l/m 0,0 km/h (0 Bft) NW 313 5 min 343 W/m 14,2 C 22,4 C 0,0 km/h (0 Bft)
18.09.2021 16:30 22,4 C 59 % 1015,5 hPa 0,0 l/m 0,0 km/h (0 Bft) NW 313 5 min 388 W/m 14,0 C 22,4 C 0,0 km/h (0 Bft)
18.09.2021 16:25 22,4 C 59 % 1015,4 hPa 0,0 l/m 0,0 km/h (0 Bft) N 360 5 min 411 W/m 14,0 C 22,4 C 0,0 km/h (0 Bft)
18.09.2021 16:20 22,5 C 60 % 1015,5 hPa 0,0 l/m 0,0 km/h (0 Bft) N-NO 12 5 min 450 W/m 14,3 C 22,5 C 0,0 km/h (0 Bft)
18.09.2021 16:15 22,3 C 61 % 1015,5 hPa 0,0 l/m 0,0 km/h (0 Bft) N-NO 12 5 min 485 W/m 14,4 C 22,3 C 0,0 km/h (0 Bft)
18.09.2021 16:10 22,2 C 61 % 1015,6 hPa 0,0 l/m 0,0 km/h (0 Bft) N-NO 12 5 min 450 W/m 14,3 C 22,2 C 0,0 km/h (0 Bft)
18.09.2021 16:05 22,3 C 57 % 1015,6 hPa 0,0 l/m 0,0 km/h (0 Bft) N-NO 12 5 min 454 W/m 13,4 C 22,3 C 0,0 km/h (0 Bft)
18.09.2021 16:00 22,3 C 57 % 1015,6 hPa 0,0 l/m 0,0 km/h (0 Bft) N-NO 19 5 min 454 W/m 13,4 C 22,3 C 0,0 km/h (0 Bft)
18.09.2021 15:55 22,3 C 60 % 1015,7 hPa 0,0 l/m 0,0 km/h (0 Bft) N-NO 20 5 min 490 W/m 14,2 C 22,3 C 0,0 km/h (0 Bft)
18.09.2021 15:50 22,3 C 58 % 1015,7 hPa 0,0 l/m 0,0 km/h (0 Bft) N-NO 20 5 min 478 W/m 13,6 C 22,3 C 0,0 km/h (0 Bft)
18.09.2021 15:45 22,5 C 62 % 1015,7 hPa 0,0 l/m 0,0 km/h (0 Bft) N-NW 339 5 min 480 W/m 14,8 C 22,5 C 0,0 km/h (0 Bft)
18.09.2021 15:40 22,4 C 61 % 1015,7 hPa 0,0 l/m 0,0 km/h (0 Bft) N-NW 339 5 min 476 W/m 14,5 C 22,4 C 0,0 km/h (0 Bft)
18.09.2021 15:35 22,3 C 60 % 1015,7 hPa 0,0 l/m 0,0 km/h (0 Bft) N-NW 331 5 min 501 W/m 14,2 C 22,3 C 0,0 km/h (0 Bft)
18.09.2021 15:30 22,2 C 59 % 1015,7 hPa 0,0 l/m 0,0 km/h (0 Bft) N-NW 331 5 min 503 W/m 13,8 C 22,2 C 0,0 km/h (0 Bft)
18.09.2021 15:25 21,9 C 62 % 1015,8 hPa 0,0 l/m 0,0 km/h (0 Bft) N-NW 331 5 min 527 W/m 14,3 C 21,9 C 0,0 km/h (0 Bft)
18.09.2021 15:20 22,0 C 59 % 1015,8 hPa 0,0 l/m 0,0 km/h (0 Bft) N-NW 327 5 min 533 W/m 13,6 C 22,0 C 0,0 km/h (0 Bft)
18.09.2021 15:15 22,3 C 57 % 1015,9 hPa 0,0 l/m 0,0 km/h (0 Bft) NW 304 5 min 543 W/m 13,4 C 22,3 C 0,0 km/h (0 Bft)
18.09.2021 15:10 22,3 C 60 % 1015,9 hPa 0,0 l/m 0,0 km/h (0 Bft) N 355 5 min 552 W/m 14,2 C 22,3 C 0,0 km/h (0 Bft)
18.09.2021 15:05 22,2 C 59 % 1015,9 hPa 0,0 l/m 0,0 km/h (0 Bft) O-SO 115 5 min 571 W/m 13,8 C 22,2 C 0,0 km/h (0 Bft)
18.09.2021 15:00 22,2 C 61 % 1015,9 hPa 0,0 l/m 0,0 km/h (0 Bft) O-SO 115 5 min 564 W/m 14,3 C 22,2 C 0,0 km/h (0 Bft)
18.09.2021 14:55 22,0 C 62 % 1016,0 hPa 0,0 l/m 0,0 km/h (0 Bft) NW 321 5 min 492 W/m 14,4 C 22,0 C 0,0 km/h (0 Bft)
18.09.2021 14:50 21,8 C 62 % 1015,9 hPa 0,0 l/m 0,0 km/h (0 Bft) NW 321 5 min 582 W/m 14,2 C 21,8 C 0,0 km/h (0 Bft)
18.09.2021 14:45 21,7 C 59 % 1016,0 hPa 0,0 l/m 0,0 km/h (0 Bft) NW 321 5 min 582 W/m 13,3 C 21,7 C 0,0 km/h (0 Bft)
18.09.2021 14:40 21,8 C 58 % 1016,0 hPa 0,0 l/m 0,0 km/h (0 Bft) N-NW 331 5 min 584 W/m 13,2 C 21,8 C 0,0 km/h (0 Bft)
18.09.2021 14:35 21,7 C 64 % 1016,1 hPa 0,0 l/m 0,0 km/h (0 Bft) O-SO 109 5 min 598 W/m 14,6 C 21,7 C 0,0 km/h (0 Bft)
18.09.2021 14:30 21,7 C 57 % 1016,2 hPa 0,0 l/m 0,0 km/h (0 Bft) NW 317 5 min 561 W/m 12,8 C 21,7 C 0,0 km/h (0 Bft)
18.09.2021 14:25 21,8 C 61 % 1016,2 hPa 0,0 l/m 0,0 km/h (0 Bft) NW 318 5 min 638 W/m 13,9 C 21,8 C 0,0 km/h (0 Bft)
18.09.2021 14:20 21,9 C 64 % 1016,2 hPa 0,0 l/m 0,0 km/h (0 Bft) NW 313 5 min 659 W/m 14,8 C 21,9 C 0,0 km/h (0 Bft)
18.09.2021 14:15 21,7 C 62 % 1016,2 hPa 0,0 l/m 0,0 km/h (0 Bft) NW 313 5 min 610 W/m 14,1 C 21,7 C 0,0 km/h (0 Bft)
18.09.2021 14:10 21,6 C 63 % 1016,3 hPa 0,0 l/m 0,0 km/h (0 Bft) NW 314 5 min 621 W/m 14,2 C 21,6 C 0,0 km/h (0 Bft)
18.09.2021 14:05 21,2 C 64 % 1016,3 hPa 0,0 l/m 0,0 km/h (0 Bft) NW 313 5 min 621 W/m 14,1 C 21,2 C 0,0 km/h (0 Bft)
18.09.2021 14:00 21,0 C 66 % 1016,4 hPa 0,0 l/m 0,0 km/h (0 Bft) NW 313 5 min 622 W/m 14,4 C 21,0 C 0,0 km/h (0 Bft)
18.09.2021 13:55 21,3 C 63 % 1016,4 hPa 0,0 l/m 0,0 km/h (0 Bft) NW 325 5 min 601 W/m 14,0 C 21,3 C 0,0 km/h (0 Bft)
18.09.2021 13:50 21,2 C 67 % 1016,5 hPa 0,0 l/m 0,0 km/h (0 Bft) N-NW 338 5 min 573 W/m 14,8 C 21,2 C 0,0 km/h (0 Bft)
18.09.2021 13:45 20,9 C 70 % 1016,5 hPa 0,0 l/m 0,0 km/h (0 Bft) N-NW 338 5 min 612 W/m 15,2 C 20,9 C 0,0 km/h (0 Bft)
18.09.2021 13:40 20,5 C 69 % 1016,6 hPa 0,0 l/m 0,0 km/h (0 Bft) N-NW 338 5 min 587 W/m 14,6 C 20,5 C 0,0 km/h (0 Bft)
18.09.2021 13:35 20,2 C 68 % 1016,6 hPa 0,0 l/m 0,0 km/h (0 Bft) NW 315 5 min 554 W/m 14,1 C 20,2 C 0,0 km/h (0 Bft)
18.09.2021 13:30 19,8 C 72 % 1016,5 hPa 0,0 l/m 0,0 km/h (0 Bft) NW 325 5 min 510 W/m 14,6 C 19,8 C 0,0 km/h (0 Bft)
18.09.2021 13:25 19,9 C 70 % 1016,6 hPa 0,0 l/m 0,0 km/h (0 Bft) N-NW 327 5 min 281 W/m 14,3 C 19,9 C 0,0 km/h (0 Bft)
18.09.2021 13:20 20,3 C 71 % 1016,6 hPa 0,0 l/m 0,0 km/h (0 Bft) N-NW 331 5 min 165 W/m 14,9 C 20,3 C 0,0 km/h (0 Bft)
18.09.2021 13:15 20,5 C 70 % 1016,6 hPa 0,0 l/m 0,0 km/h (0 Bft) NW 304 5 min 213 W/m 14,8 C 20,5 C 0,0 km/h (0 Bft)
18.09.2021 13:10 19,9 C 74 % 1016,6 hPa 0,0 l/m 0,0 km/h (0 Bft) NW 316 5 min 772 W/m 15,1 C 19,9 C 0,0 km/h (0 Bft)
18.09.2021 13:05 19,5 C 74 % 1016,6 hPa 0,0 l/m 0,0 km/h (0 Bft) NW 316 5 min 684 W/m 14,7 C 19,5 C 0,0 km/h (0 Bft)
18.09.2021 13:00 19,4 C 73 % 1016,6 hPa 0,0 l/m 0,0 km/h (0 Bft) NW 316 5 min 617 W/m 14,4 C 19,4 C 0,0 km/h (0 Bft)
18.09.2021 12:55 19,6 C 73 % 1016,7 hPa 0,0 l/m 0,0 km/h (0 Bft) NW 317 0 min 148 W/m 14,6 C 19,6 C 0,0 km/h (0 Bft)
18.09.2021 12:50 19,9 C 73 % 1016,7 hPa 0,0 l/m 0,0 km/h (0 Bft) NW 317 0 min 132 W/m 14,9 C 19,9 C 0,0 km/h (0 Bft)
18.09.2021 12:45 20,1 C 71 % 1016,7 hPa 0,0 l/m 0,0 km/h (0 Bft) NW 324 5 min 176 W/m 14,7 C 20,1 C 0,0 km/h (0 Bft)
18.09.2021 12:40 20,1 C 71 % 1016,6 hPa 0,0 l/m 0,0 km/h (0 Bft) NW 323 5 min 290 W/m 14,7 C 20,1 C 0,0 km/h (0 Bft)
18.09.2021 12:35 19,7 C 75 % 1016,7 hPa 0,0 l/m 0,0 km/h (0 Bft) NW 311 5 min 754 W/m 15,1 C 19,7 C 0,0 km/h (0 Bft)
18.09.2021 12:30 19,4 C 78 % 1016,7 hPa 0,0 l/m 0,0 km/h (0 Bft) NW 312 5 min 673 W/m 15,5 C 19,4 C 0,0 km/h (0 Bft)
18.09.2021 12:25 19,1 C 78 % 1016,8 hPa 0,0 l/m 0,0 km/h (0 Bft) NW 311 5 min 645 W/m 15,2 C 19,1 C 0,0 km/h (0 Bft)
18.09.2021 12:20 18,9 C 79 % 1016,9 hPa 0,0 l/m 0,0 km/h (0 Bft) NW 315 5 min 605 W/m 15,2 C 18,9 C 0,0 km/h (0 Bft)
18.09.2021 12:15 18,7 C 81 % 1016,9 hPa 0,0 l/m 0,0 km/h (0 Bft) W-NW 300 5 min 550 W/m 15,4 C 18,7 C 0,0 km/h (0 Bft)
18.09.2021 12:10 18,5 C 81 % 1016,9 hPa 0,0 l/m 0,0 km/h (0 Bft) W-NW 300 5 min 582 W/m 15,2 C 18,5 C 0,0 km/h (0 Bft)
18.09.2021 12:05 18,3 C 82 % 1016,9 hPa 0,0 l/m 0,0 km/h (0 Bft) W-NW 299 5 min 587 W/m 15,2 C 18,3 C 0,0 km/h (0 Bft)
18.09.2021 12:00 18,0 C 84 % 1016,9 hPa 0,0 l/m 0,0 km/h (0 Bft) W-NW 299 5 min 561 W/m 15,3 C 18,0 C 0,0 km/h (0 Bft)
18.09.2021 11:55 17,7 C 84 % 1016,9 hPa 0,0 l/m 0,0 km/h (0 Bft) W-NW 300 5 min 570 W/m 15,0 C 17,7 C 0,0 km/h (0 Bft)
18.09.2021 11:50 17,6 C 85 % 1017,0 hPa 0,0 l/m 0,0 km/h (0 Bft) W-NW 300 5 min 555 W/m 15,0 C 17,6 C 0,0 km/h (0 Bft)
18.09.2021 11:45 17,3 C 88 % 1017,0 hPa 0,0 l/m 0,0 km/h (0 Bft) S 186 5 min 561 W/m 15,3 C 17,3 C 0,0 km/h (0 Bft)
18.09.2021 11:40 16,8 C 90 % 1017,0 hPa 0,0 l/m 0,0 km/h (0 Bft) S 186 5 min 550 W/m 15,1 C 16,8 C 0,0 km/h (0 Bft)
18.09.2021 11:35 16,3 C 91 % 1017,0 hPa 0,0 l/m 0,0 km/h (0 Bft) S 186 5 min 536 W/m 14,8 C 16,3 C 0,0 km/h (0 Bft)
18.09.2021 11:30 16,1 C 92 % 1017,1 hPa 0,0 l/m 0,0 km/h (0 Bft) S 186 5 min 524 W/m 14,8 C 16,1 C 0,0 km/h (0 Bft)
18.09.2021 11:25 15,8 C 94 % 1017,1 hPa 0,0 l/m 0,0 km/h (0 Bft) S 186 5 min 519 W/m 14,8 C 15,8 C 0,0 km/h (0 Bft)
18.09.2021 11:20 15,5 C 95 % 1017,1 hPa 0,0 l/m 0,0 km/h (0 Bft) S 186 5 min 499 W/m 14,7 C 15,5 C 0,0 km/h (0 Bft)
18.09.2021 11:15 15,2 C 96 % 1017,1 hPa 0,0 l/m 0,0 km/h (0 Bft) S 186 5 min 483 W/m 14,6 C 15,2 C 0,0 km/h (0 Bft)
18.09.2021 11:10 14,6 C 96 % 1017,1 hPa 0,0 l/m 0,0 km/h (0 Bft) S 186 5 min 466 W/m 14,0 C 14,6 C 0,0 km/h (0 Bft)
18.09.2021 11:05 14,3 C 96 % 1017,2 hPa 0,0 l/m 0,0 km/h (0 Bft) S 186 5 min 454 W/m 13,7 C 14,3 C 0,0 km/h (0 Bft)
18.09.2021 11:00 14,1 C 96 % 1017,2 hPa 0,0 l/m 0,0 km/h (0 Bft) S 186 5 min 360 W/m 13,5 C 14,1 C 0,0 km/h (0 Bft)
18.09.2021 10:55 13,9 C 96 % 1017,2 hPa 0,0 l/m 0,0 km/h (0 Bft) S 186 5 min 417 W/m 13,3 C 13,9 C 0,0 km/h (0 Bft)
18.09.2021 10:50 13,8 C 96 % 1017,1 hPa 0,0 l/m 0,0 km/h (0 Bft) S 186 5 min 371 W/m 13,2 C 13,8 C 0,0 km/h (0 Bft)
18.09.2021 10:45 13,8 C 97 % 1017,1 hPa 0,0 l/m 0,0 km/h (0 Bft) S 184 5 min 362 W/m 13,3 C 13,8 C 0,0 km/h (0 Bft)
18.09.2021 10:40 13,5 C 97 % 1017,1 hPa 0,0 l/m 0,0 km/h (0 Bft) S 184 5 min 406 W/m 13,0 C 13,5 C 0,0 km/h (0 Bft)
18.09.2021 10:35 13,3 C 96 % 1017,1 hPa 0,0 l/m 0,0 km/h (0 Bft) S 184 5 min 274 W/m 12,7 C 13,3 C 0,0 km/h (0 Bft)
18.09.2021 10:30 13,2 C 97 % 1017,1 hPa 0,0 l/m 0,0 km/h (0 Bft) S 184 5 min 362 W/m 12,7 C 13,2 C 0,0 km/h (0 Bft)
18.09.2021 10:25 12,9 C 96 % 1017,1 hPa 0,0 l/m 0,0 km/h (0 Bft) S 184 5 min 262 W/m 12,3 C 12,9 C 0,0 km/h (0 Bft)
18.09.2021 10:20 12,9 C 97 % 1017,1 hPa 0,0 l/m 0,0 km/h (0 Bft) S 184 5 min 185 W/m 12,4 C 12,9 C 0,0 km/h (0 Bft)
18.09.2021 10:15 12,7 C 96 % 1017,1 hPa 0,0 l/m 0,0 km/h (0 Bft) S 184 5 min 183 W/m 12,1 C 12,7 C 0,0 km/h (0 Bft)
18.09.2021 10:10 12,6 C 96 % 1017,0 hPa 0,0 l/m 0,0 km/h (0 Bft) S 184 5 min 206 W/m 12,0 C 12,6 C 0,0 km/h (0 Bft)
18.09.2021 10:05 12,5 C 96 % 1017,1 hPa 0,0 l/m 0,0 km/h (0 Bft) S 184 5 min 169 W/m 11,9 C 12,5 C 0,0 km/h (0 Bft)
18.09.2021 10:00 12,3 C 96 % 1017,1 hPa 0,0 l/m 0,0 km/h (0 Bft) S 184 5 min 160 W/m 11,7 C 12,3 C 0,0 km/h (0 Bft)
18.09.2021 09:55 12,3 C 96 % 1017,1 hPa 0,0 l/m 0,0 km/h (0 Bft) S 184 0 min 107 W/m 11,7 C 12,3 C 0,0 km/h (0 Bft)
18.09.2021 09:50 12,3 C 96 % 1017,0 hPa 0,0 l/m 0,0 km/h (0 Bft) S 184 0 min 118 W/m 11,7 C 12,3 C 0,0 km/h (0 Bft)
18.09.2021 09:45 12,3 C 96 % 1017,0 hPa 0,0 l/m 0,0 km/h (0 Bft) S 175 0 min 120 W/m 11,7 C 12,3 C 0,0 km/h (0 Bft)
18.09.2021 09:40 12,2 C 96 % 1016,9 hPa 0,0 l/m 0,0 km/h (0 Bft) S 175 0 min 105 W/m 11,6 C 12,2 C 0,0 km/h (0 Bft)
18.09.2021 09:35 12,2 C 96 % 1016,9 hPa 0,0 l/m 0,0 km/h (0 Bft) S 175 0 min 102 W/m 11,6 C 12,2 C 0,0 km/h (0 Bft)
18.09.2021 09:30 12,1 C 96 % 1016,8 hPa 0,0 l/m 0,0 km/h (0 Bft) S 175 0 min 109 W/m 11,5 C 12,1 C 0,0 km/h (0 Bft)
18.09.2021 09:25 12,0 C 96 % 1016,8 hPa 0,0 l/m 0,0 km/h (0 Bft) S 175 0 min 97 W/m 11,4 C 12,0 C 0,0 km/h (0 Bft)
18.09.2021 09:20 11,9 C 96 % 1016,9 hPa 0,0 l/m 0,0 km/h (0 Bft) S 175 0 min 128 W/m 11,3 C 11,9 C 0,0 km/h (0 Bft)
18.09.2021 09:15 11,8 C 96 % 1016,9 hPa 0,0 l/m 0,0 km/h (0 Bft) S 175 0 min 113 W/m 11,2 C 11,8 C 0,0 km/h (0 Bft)
18.09.2021 09:10 11,7 C 96 % 1016,9 hPa 0,0 l/m 0,0 km/h (0 Bft) S 175 0 min 97 W/m 11,1 C 11,7 C 0,0 km/h (0 Bft)
18.09.2021 09:05 11,7 C 96 % 1016,8 hPa 0,0 l/m 0,0 km/h (0 Bft) S 175 0 min 76 W/m 11,1 C 11,7 C 0,0 km/h (0 Bft)
18.09.2021 09:00 11,6 C 96 % 1016,8 hPa 0,0 l/m 0,0 km/h (0 Bft) S 175 0 min 56 W/m 11,0 C 11,6 C 0,0 km/h (0 Bft)
18.09.2021 08:55 11,4 C 96 % 1016,8 hPa 0,0 l/m 0,0 km/h (0 Bft) S 175 0 min 62 W/m 10,8 C 11,4 C 0,0 km/h (0 Bft)
18.09.2021 08:50 11,3 C 96 % 1016,8 hPa 0,0 l/m 0,0 km/h (0 Bft) S 175 0 min 72 W/m 10,7 C 11,3 C 0,0 km/h (0 Bft)
18.09.2021 08:45 11,3 C 96 % 1016,9 hPa 0,0 l/m 0,0 km/h (0 Bft) S 175 0 min 76 W/m 10,7 C 11,3 C 0,0 km/h (0 Bft)
18.09.2021 08:40 11,3 C 96 % 1016,9 hPa 0,0 l/m 0,0 km/h (0 Bft) S 175 0 min 70 W/m 10,7 C 11,3 C 0,0 km/h (0 Bft)
18.09.2021 08:35 11,3 C 96 % 1016,8 hPa 0,0 l/m 0,0 km/h (0 Bft) S 175 0 min 56 W/m 10,7 C 11,3 C 0,0 km/h (0 Bft)
18.09.2021 08:30 11,3 C 96 % 1016,8 hPa 0,0 l/m 0,0 km/h (0 Bft) S 175 0 min 51 W/m 10,7 C 11,3 C 0,0 km/h (0 Bft)
18.09.2021 08:25 11,3 C 96 % 1016,7 hPa 0,0 l/m 0,0 km/h (0 Bft) S 175 0 min 44 W/m 10,7 C 11,3 C 0,0 km/h (0 Bft)
18.09.2021 08:20 11,3 C 96 % 1016,7 hPa 0,0 l/m 0,0 km/h (0 Bft) S 175 0 min 44 W/m 10,7 C 11,3 C 0,0 km/h (0 Bft)
18.09.2021 08:15 11,2 C 96 % 1016,7 hPa 0,0 l/m 0,0 km/h (0 Bft) S 175 0 min 40 W/m 10,6 C 11,2 C 0,0 km/h (0 Bft)
18.09.2021 08:10 11,1 C 96 % 1016,7 hPa 0,0 l/m 0,0 km/h (0 Bft) S 175 0 min 35 W/m 10,5 C 11,1 C 0,0 km/h (0 Bft)
18.09.2021 08:05 11,1 C 96 % 1016,7 hPa 0,0 l/m 0,0 km/h (0 Bft) S 175 0 min 28 W/m 10,5 C 11,1 C 0,0 km/h (0 Bft)
18.09.2021 08:00 11,0 C 96 % 1016,6 hPa 0,0 l/m 0,0 km/h (0 Bft) S 175 0 min 23 W/m 10,4 C 11,0 C 0,0 km/h (0 Bft)
18.09.2021 07:55 10,9 C 96 % 1016,6 hPa 0,0 l/m 0,0 km/h (0 Bft) S 175 0 min 19 W/m 10,3 C 10,9 C 0,0 km/h (0 Bft)
18.09.2021 07:50 10,8 C 96 % 1016,5 hPa 0,0 l/m 0,0 km/h (0 Bft) S 175 0 min 18 W/m 10,2 C 10,8 C 0,0 km/h (0 Bft)
18.09.2021 07:45 10,8 C 96 % 1016,5 hPa 0,0 l/m 0,0 km/h (0 Bft) S 175 0 min 16 W/m 10,2 C 10,8 C 0,0 km/h (0 Bft)
18.09.2021 07:40 10,8 C 96 % 1016,5 hPa 0,0 l/m 0,0 km/h (0 Bft) S 175 0 min 14 W/m 10,2 C 10,8 C 0,0 km/h (0 Bft)
18.09.2021 07:35 10,8 C 96 % 1016,5 hPa 0,0 l/m 0,0 km/h (0 Bft) S 175 0 min 11 W/m 10,2 C 10,8 C 0,0 km/h (0 Bft)
18.09.2021 07:30 10,7 C 96 % 1016,4 hPa 0,0 l/m 0,0 km/h (0 Bft) S 175 0 min 9 W/m 10,1 C 10,7 C 0,0 km/h (0 Bft)
18.09.2021 07:25 10,7 C 96 % 1016,4 hPa 0,0 l/m 0,0 km/h (0 Bft) S 175 0 min 7 W/m 10,1 C 10,7 C 0,0 km/h (0 Bft)
18.09.2021 07:20 10,7 C 96 % 1016,3 hPa 0,0 l/m 0,0 km/h (0 Bft) S 175 0 min 5 W/m 10,1 C 10,7 C 0,0 km/h (0 Bft)
18.09.2021 07:15 10,7 C 96 % 1016,2 hPa 0,0 l/m 0,0 km/h (0 Bft) S 174 0 min 5 W/m 10,1 C 10,7 C 0,0 km/h (0 Bft)
18.09.2021 07:10 10,7 C 96 % 1016,1 hPa 0,0 l/m 0,0 km/h (0 Bft) S 174 0 min 0 W/m 10,1 C 10,7 C 0,0 km/h (0 Bft)
18.09.2021 07:05 10,6 C 96 % 1016,1 hPa 0,0 l/m 0,0 km/h (0 Bft) S 173 0 min 0 W/m 10,0 C 10,6 C 0,0 km/h (0 Bft)
18.09.2021 07:00 10,6 C 96 % 1016,1 hPa 0,0 l/m 0,0 km/h (0 Bft) S 174 0 min 0 W/m 10,0 C 10,6 C 0,0 km/h (0 Bft)
18.09.2021 06:55 10,6 C 96 % 1016,0 hPa 0,0 l/m 0,0 km/h (0 Bft) S 174 0 min 0 W/m 10,0 C 10,6 C 0,0 km/h (0 Bft)
18.09.2021 06:50 10,6 C 96 % 1015,9 hPa 0,0 l/m 0,0 km/h (0 Bft) S 174 0 min 0 W/m 10,0 C 10,6 C 0,0 km/h (0 Bft)
18.09.2021 06:45 10,5 C 96 % 1015,9 hPa 0,0 l/m 0,0 km/h (0 Bft) S 173 0 min 0 W/m 9,9 C 10,5 C 0,0 km/h (0 Bft)
18.09.2021 06:40 10,5 C 96 % 1015,9 hPa 0,0 l/m 0,0 km/h (0 Bft) S 174 0 min 0 W/m 9,9 C 10,5 C 0,0 km/h (0 Bft)
18.09.2021 06:35 10,4 C 95 % 1015,9 hPa 0,0 l/m 0,0 km/h (0 Bft) S 174 0 min 0 W/m 9,6 C 10,4 C 0,0 km/h (0 Bft)
18.09.2021 06:30 10,4 C 95 % 1015,9 hPa 0,0 l/m 0,0 km/h (0 Bft) S 174 0 min 0 W/m 9,6 C 10,4 C 0,0 km/h (0 Bft)
18.09.2021 06:25 10,4 C 95 % 1015,9 hPa 0,0 l/m 0,0 km/h (0 Bft) S 174 0 min 0 W/m 9,6 C 10,4 C 0,0 km/h (0 Bft)
18.09.2021 06:20 10,3 C 95 % 1015,8 hPa 0,0 l/m 0,0 km/h (0 Bft) S 174 0 min 0 W/m 9,5 C 10,3 C 0,0 km/h (0 Bft)
18.09.2021 06:15 10,3 C 95 % 1015,7 hPa 0,0 l/m 0,0 km/h (0 Bft) S 174 0 min 0 W/m 9,5 C 10,3 C 0,0 km/h (0 Bft)
18.09.2021 06:10 10,2 C 95 % 1015,7 hPa 0,0 l/m 0,0 km/h (0 Bft) S 173 0 min 0 W/m 9,4 C 10,2 C 0,0 km/h (0 Bft)
18.09.2021 06:05 10,1 C 95 % 1015,8 hPa 0,0 l/m 0,0 km/h (0 Bft) S 174 0 min 0 W/m 9,3 C 10,1 C 0,0 km/h (0 Bft)
18.09.2021 05:55 10,2 C 95 % 1015,8 hPa 0,0 l/m 0,0 km/h (0 Bft) - - 0 0 min 0 W/m 9,4 C 10,2 C 0,0 km/h (0 Bft)
18.09.2021 05:50 10,2 C 95 % 1015,8 hPa 0,0 l/m 0,0 km/h (0 Bft) - - 0 0 min 0 W/m 9,4 C 10,2 C 0,0 km/h (0 Bft)
18.09.2021 05:45 10,3 C 95 % 1015,9 hPa 0,0 l/m 0,0 km/h (0 Bft) - - 0 0 min 0 W/m 9,5 C 10,3 C 0,0 km/h (0 Bft)
18.09.2021 05:40 10,4 C 95 % 1015,9 hPa 0,0 l/m 0,0 km/h (0 Bft) - - 0 0 min 0 W/m 9,6 C 10,4 C 0,0 km/h (0 Bft)
18.09.2021 05:35 10,5 C 95 % 1015,9 hPa 0,0 l/m 0,0 km/h (0 Bft) - - 0 0 min 0 W/m 9,7 C 10,5 C 0,0 km/h (0 Bft)
18.09.2021 05:30 10,6 C 95 % 1015,9 hPa 0,0 l/m 0,0 km/h (0 Bft) - - 0 0 min 0 W/m 9,8 C 10,6 C 0,0 km/h (0 Bft)
18.09.2021 05:25 10,7 C 95 % 1015,8 hPa 0,0 l/m 0,0 km/h (0 Bft) - - 0 0 min 0 W/m 9,9 C 10,7 C 0,0 km/h (0 Bft)
18.09.2021 05:20 10,8 C 95 % 1015,9 hPa 0,0 l/m 0,0 km/h (0 Bft) - - 0 0 min 0 W/m 10,0 C 10,8 C 0,0 km/h (0 Bft)
18.09.2021 05:15 10,9 C 95 % 1015,8 hPa 0,0 l/m 0,0 km/h (0 Bft) - - 0 0 min 0 W/m 10,1 C 10,9 C 0,0 km/h (0 Bft)
18.09.2021 05:10 11,1 C 95 % 1015,9 hPa 0,0 l/m 0,0 km/h (0 Bft) - - 0 0 min 0 W/m 10,3 C 11,1 C 0,0 km/h (0 Bft)
18.09.2021 05:05 11,1 C 95 % 1015,8 hPa 0,0 l/m 0,0 km/h (0 Bft) - - 0 0 min 0 W/m 10,3 C 11,1 C 0,0 km/h (0 Bft)
18.09.2021 05:00 11,2 C 95 % 1015,9 hPa 0,0 l/m 0,0 km/h (0 Bft) - - 0 0 min 0 W/m 10,4 C 11,2 C 0,0 km/h (0 Bft)
18.09.2021 04:55 11,3 C 95 % 1015,9 hPa 0,0 l/m 0,0 km/h (0 Bft) - - 0 0 min 0 W/m 10,5 C 11,3 C 0,0 km/h (0 Bft)
18.09.2021 04:50 11,4 C 95 % 1015,9 hPa 0,0 l/m 0,0 km/h (0 Bft) - - 0 0 min 0 W/m 10,6 C 11,4 C 0,0 km/h (0 Bft)
18.09.2021 04:45 11,5 C 95 % 1015,9 hPa 0,0 l/m 0,0 km/h (0 Bft) - - 0 0 min 0 W/m 10,7 C 11,5 C 0,0 km/h (0 Bft)
18.09.2021 04:40 11,6 C 95 % 1015,9 hPa 0,0 l/m 0,0 km/h (0 Bft) - - 0 0 min 0 W/m 10,8 C 11,6 C 0,0 km/h (0 Bft)
18.09.2021 04:35 11,8 C 95 % 1015,9 hPa 0,0 l/m 0,0 km/h (0 Bft) - - 0 0 min 0 W/m 11,0 C 11,8 C 0,0 km/h (0 Bft)
18.09.2021 04:30 11,9 C 95 % 1015,9 hPa 0,0 l/m 0,0 km/h (0 Bft) - - 0 0 min 0 W/m 11,1 C 11,9 C 0,0 km/h (0 Bft)
18.09.2021 04:25 12,1 C 95 % 1015,9 hPa 0,0 l/m 0,0 km/h (0 Bft) - - 0 0 min 0 W/m 11,3 C 12,1 C 0,0 km/h (0 Bft)
18.09.2021 04:20 12,1 C 95 % 1016,0 hPa 0,0 l/m 0,0 km/h (0 Bft) - - 0 0 min 0 W/m 11,3 C 12,1 C 0,0 km/h (0 Bft)
18.09.2021 04:15 12,2 C 95 % 1016,1 hPa 0,0 l/m 0,0 km/h (0 Bft) - - 0 0 min 0 W/m 11,4 C 12,2 C 0,0 km/h (0 Bft)
18.09.2021 04:10 12,2 C 96 % 1016,0 hPa 0,0 l/m 0,0 km/h (0 Bft) - - 0 0 min 0 W/m 11,6 C 12,2 C 0,0 km/h (0 Bft)
18.09.2021 04:05 12,2 C 95 % 1016,1 hPa 0,0 l/m 0,0 km/h (0 Bft) - - 0 0 min 0 W/m 11,4 C 12,2 C 0,0 km/h (0 Bft)
18.09.2021 04:00 12,2 C 95 % 1016,1 hPa 0,0 l/m 0,0 km/h (0 Bft) - - 0 0 min 0 W/m 11,4 C 12,2 C 0,0 km/h (0 Bft)
18.09.2021 03:55 12,1 C 96 % 1016,0 hPa 0,0 l/m 0,0 km/h (0 Bft) - - 0 0 min 0 W/m 11,5 C 12,1 C 0,0 km/h (0 Bft)
18.09.2021 03:50 12,0 C 96 % 1016,1 hPa 0,0 l/m 0,0 km/h (0 Bft) - - 0 0 min 0 W/m 11,4 C 12,0 C 0,0 km/h (0 Bft)
18.09.2021 03:45 11,9 C 96 % 1016,1 hPa 0,0 l/m 0,0 km/h (0 Bft) - - 0 0 min 0 W/m 11,3 C 11,9 C 0,0 km/h (0 Bft)
18.09.2021 03:40 11,8 C 95 % 1016,1 hPa 0,0 l/m 0,0 km/h (0 Bft) - - 0 0 min 0 W/m 11,0 C 11,8 C 0,0 km/h (0 Bft)
18.09.2021 03:35 11,8 C 95 % 1016,1 hPa 0,0 l/m 0,0 km/h (0 Bft) - - 0 0 min 0 W/m 11,0 C 11,8 C 0,0 km/h (0 Bft)
18.09.2021 03:30 11,7 C 95 % 1016,1 hPa 0,0 l/m 0,0 km/h (0 Bft) - - 0 0 min 0 W/m 10,9 C 11,7 C 0,0 km/h (0 Bft)
18.09.2021 03:25 11,7 C 95 % 1016,1 hPa 0,0 l/m 0,0 km/h (0 Bft) - - 0 0 min 0 W/m 10,9 C 11,7 C 0,0 km/h (0 Bft)
18.09.2021 03:20 11,7 C 95 % 1016,1 hPa 0,0 l/m 0,0 km/h (0 Bft) - - 0 0 min 0 W/m 10,9 C 11,7 C 0,0 km/h (0 Bft)
18.09.2021 03:15 11,7 C 95 % 1016,1 hPa 0,0 l/m 0,0 km/h (0 Bft) - - 0 0 min 0 W/m 10,9 C 11,7 C 0,0 km/h (0 Bft)
18.09.2021 03:10 11,8 C 95 % 1016,2 hPa 0,0 l/m 0,0 km/h (0 Bft) - - 0 0 min 0 W/m 11,0 C 11,8 C 0,0 km/h (0 Bft)
18.09.2021 03:05 11,8 C 95 % 1016,2 hPa 0,0 l/m 0,0 km/h (0 Bft) - - 0 0 min 0 W/m 11,0 C 11,8 C 0,0 km/h (0 Bft)
18.09.2021 03:00 11,7 C 95 % 1016,3 hPa 0,0 l/m 0,0 km/h (0 Bft) - - 0 0 min 0 W/m 10,9 C 11,7 C 0,0 km/h (0 Bft)
18.09.2021 02:55 11,7 C 95 % 1016,2 hPa 0,0 l/m 0,0 km/h (0 Bft) - - 0 0 min 0 W/m 10,9 C 11,7 C 0,0 km/h (0 Bft)
18.09.2021 02:50 11,8 C 95 % 1016,3 hPa 0,0 l/m 0,0 km/h (0 Bft) - - 0 0 min 0 W/m 11,0 C 11,8 C 0,0 km/h (0 Bft)
18.09.2021 02:45 11,9 C 95 % 1016,2 hPa 0,0 l/m 0,0 km/h (0 Bft) - - 0 0 min 0 W/m 11,1 C 11,9 C 0,0 km/h (0 Bft)
18.09.2021 02:40 11,9 C 95 % 1016,3 hPa 0,0 l/m 0,0 km/h (0 Bft) - - 0 0 min 0 W/m 11,1 C 11,9 C 0,0 km/h (0 Bft)
18.09.2021 02:35 11,8 C 95 % 1016,3 hPa 0,0 l/m 0,0 km/h (0 Bft) - - 0 0 min 0 W/m 11,0 C 11,8 C 0,0 km/h (0 Bft)
18.09.2021 02:30 11,8 C 95 % 1016,2 hPa 0,0 l/m 0,0 km/h (0 Bft) - - 0 0 min 0 W/m 11,0 C 11,8 C 0,0 km/h (0 Bft)
18.09.2021 02:25 11,8 C 95 % 1016,2 hPa 0,0 l/m 0,0 km/h (0 Bft) - - 0 0 min 0 W/m 11,0 C 11,8 C 0,0 km/h (0 Bft)
18.09.2021 02:20 11,6 C 95 % 1016,1 hPa 0,0 l/m 0,0 km/h (0 Bft) - - 0 0 min 0 W/m 10,8 C 11,6 C 0,0 km/h (0 Bft)
18.09.2021 02:15 11,6 C 95 % 1016,2 hPa 0,0 l/m 0,0 km/h (0 Bft) - - 0 0 min 0 W/m 10,8 C 11,6 C 0,0 km/h (0 Bft)
18.09.2021 02:10 11,6 C 95 % 1016,2 hPa 0,0 l/m 0,0 km/h (0 Bft) - - 0 0 min 0 W/m 10,8 C 11,6 C 0,0 km/h (0 Bft)
18.09.2021 02:05 11,6 C 94 % 1016,2 hPa 0,0 l/m 0,0 km/h (0 Bft) - - 0 0 min 0 W/m 10,7 C 11,6 C 0,0 km/h (0 Bft)
18.09.2021 02:00 11,7 C 95 % 1016,2 hPa 0,0 l/m 0,0 km/h (0 Bft) - - 0 0 min 0 W/m 10,9 C 11,7 C 0,0 km/h (0 Bft)
18.09.2021 01:55 11,6 C 95 % 1016,2 hPa 0,0 l/m 0,0 km/h (0 Bft) - - 0 0 min 0 W/m 10,8 C 11,6 C 0,0 km/h (0 Bft)
18.09.2021 01:50 11,6 C 94 % 1016,2 hPa 0,0 l/m 0,0 km/h (0 Bft) - - 0 0 min 0 W/m 10,7 C 11,6 C 0,0 km/h (0 Bft)
18.09.2021 01:45 11,7 C 94 % 1016,1 hPa 0,0 l/m 0,0 km/h (0 Bft) - - 0 0 min 0 W/m 10,8 C 11,7 C 0,0 km/h (0 Bft)
18.09.2021 01:40 11,9 C 94 % 1016,1 hPa 0,0 l/m 0,0 km/h (0 Bft) - - 0 0 min 0 W/m 11,0 C 11,9 C 0,0 km/h (0 Bft)
18.09.2021 01:35 12,0 C 95 % 1016,1 hPa 0,0 l/m 0,0 km/h (0 Bft) - - 0 0 min 0 W/m 11,2 C 12,0 C 0,0 km/h (0 Bft)
18.09.2021 01:30 12,1 C 95 % 1016,1 hPa 0,0 l/m 0,0 km/h (0 Bft) - - 0 0 min 0 W/m 11,3 C 12,1 C 0,0 km/h (0 Bft)
18.09.2021 01:25 12,1 C 95 % 1016,1 hPa 0,0 l/m 0,0 km/h (0 Bft) - - 0 0 min 0 W/m 11,3 C 12,1 C 0,0 km/h (0 Bft)
18.09.2021 01:20 11,9 C 95 % 1016,1 hPa 0,0 l/m 0,0 km/h (0 Bft) - - 0 0 min 0 W/m 11,1 C 11,9 C 0,0 km/h (0 Bft)
18.09.2021 01:15 11,7 C 95 % 1016,1 hPa 0,0 l/m 0,0 km/h (0 Bft) - - 0 0 min 0 W/m 10,9 C 11,7 C 0,0 km/h (0 Bft)
18.09.2021 01:10 11,6 C 94 % 1015,9 hPa 0,0 l/m 0,0 km/h (0 Bft) - - 0 0 min 0 W/m 10,7 C 11,6 C 0,0 km/h (0 Bft)
18.09.2021 01:05 11,5 C 94 % 1015,9 hPa 0,0 l/m 0,0 km/h (0 Bft) - - 0 0 min 0 W/m 10,6 C 11,5 C 0,0 km/h (0 Bft)
18.09.2021 01:00 11,6 C 93 % 1015,9 hPa 0,0 l/m 0,0 km/h (0 Bft) - - 0 0 min 0 W/m 10,5 C 11,6 C 0,0 km/h (0 Bft)
18.09.2021 00:55 11,7 C 93 % 1015,9 hPa 0,0 l/m 0,0 km/h (0 Bft) - - 0 0 min 0 W/m 10,6 C 11,7 C 0,0 km/h (0 Bft)
18.09.2021 00:50 11,9 C 93 % 1015,9 hPa 0,0 l/m 0,0 km/h (0 Bft) - - 0 0 min 0 W/m 10,8 C 11,9 C 0,0 km/h (0 Bft)
18.09.2021 00:45 12,2 C 94 % 1016,1 hPa 0,0 l/m 0,0 km/h (0 Bft) - - 0 0 min 0 W/m 11,3 C 12,2 C 0,0 km/h (0 Bft)
18.09.2021 00:40 12,4 C 93 % 1016,0 hPa 0,0 l/m 0,0 km/h (0 Bft) - - 0 0 min 0 W/m 11,3 C 12,4 C 0,0 km/h (0 Bft)
18.09.2021 00:35 12,6 C 94 % 1016,1 hPa 0,0 l/m 0,0 km/h (0 Bft) - - 0 0 min 0 W/m 11,7 C 12,6 C 0,0 km/h (0 Bft)
18.09.2021 00:30 12,7 C 94 % 1016,0 hPa 0,0 l/m 0,0 km/h (0 Bft) - - 0 0 min 0 W/m 11,8 C 12,7 C 0,0 km/h (0 Bft)
18.09.2021 00:25 12,7 C 94 % 1016,1 hPa 0,0 l/m 0,0 km/h (0 Bft) - - 0 0 min 0 W/m 11,8 C 12,7 C 0,0 km/h (0 Bft)
18.09.2021 00:20 12,8 C 94 % 1016,0 hPa 0,0 l/m 0,0 km/h (0 Bft) - - 0 0 min 0 W/m 11,9 C 12,8 C 0,0 km/h (0 Bft)
18.09.2021 00:15 12,8 C 94 % 1016,0 hPa 0,0 l/m 0,0 km/h (0 Bft) - - 0 0 min 0 W/m 11,9 C 12,8 C 0,0 km/h (0 Bft)
18.09.2021 00:10 12,8 C 94 % 1015,9 hPa 0,0 l/m 0,0 km/h (0 Bft) - - 0 0 min 0 W/m 11,9 C 12,8 C 0,0 km/h (0 Bft)
18.09.2021 00:05 12,7 C 94 % 1015,9 hPa 0,0 l/m 0,0 km/h (0 Bft) - - 0 0 min 0 W/m 11,8 C 12,7 C 0,0 km/h (0 Bft)
18.09.2021 00:00 12,8 C 94 % 1015,9 hPa 0,0 l/m 0,0 km/h (0 Bft) - - 0 0 min 0 W/m 11,9 C 12,8 C 0,0 km/h (0 Bft)
_ Min-Zeit 06:05 17:00 17:45 - 00:00 - - - - 06:05 06:05 00:00
Minimum _ 10,1 C 56 % 1015,1 hPa - 0,0 km/h (0 Bft) - - - - 9,3 C 10,1 C 0,0 km/h (0 Bft)
_ Max-Zeit 15:45 10:20 10:55 00:00 00:00 - - 10:00 13:10 12:30 15:45 00:00
Maximum _ 22,5 C 97 % 1017,2 hPa 0,0 l/m 0,0 km/h
- - (0 Bft)
- - 5 min 772 W/m 15,5 C 22,5 C 0,0 km/h
- - (0 Bft)
Durchschnitt _ 15,3 C 83 % 1016,1 hPa #0,0 l/m 0,0 km/h (0 Bft) - - - #7:45 h 302 W/m 12,1 C 15,3 C 0,0 km/h (0 Bft)